Aérodrome :
LOGIN :

S'inscrire | Disclaimer

   EN    FR    IT 

 










Légende :    VFR   VFR Marginal   IFR   IFR Intensif   IFR Très Intensif
Visi : 
Plafond : 
>= 8 km
>= 3000ft
5 à 8 km
1000 à 3000 ft
1500m à 5 km
500 à 1000 ft
800 à 1500m
200 à 500 ft
< 800m
< 200 ft
Symboles :   Orages  Brouillard  Fortes neiges  Fortes précipitations  Vent > 20 kt
SIGMETs :   Divers  Orages  Givrage  Turbulence  Onde Orograph.  Cendres Volcan.






- Altitude de l'aérodrome : 297 ft
- Code IATA : BBU


LRBS - Bucarest - Baneasa Aurel Vlaicu

DERNIER METAR :
  • 210930Z AUTO VRB02KT 9999 NCD 23/12 Q1022 NOSIG

METARs EXPIRÉS :
  • 210900Z VRB03KT CAVOK 22/11 Q1022 NOSIG
  • 210830Z VRB04KT CAVOK 21/11 Q1022 NOSIG
  • 210800Z 07004KT 360V110 CAVOK 20/11 Q1022 NOSIG
  • 210730Z 06004KT 360V110 CAVOK 19/10 Q1023 NOSIG
  • 210700Z VRB03KT CAVOK 18/09 Q1023 NOSIG

TAF TAF LRBS
Valide du 21 à 06h jusqu'au 22 à 06h UTC


210500Z 2106/2206 07008KT CAVOK



MET'MAP, la Météo Aéronautique d'un coup d'oeil ! - Copyright ORBIFLY Décembre 2007 - Disclaimer

ORBIFLY MET'MAP TEAM :

Programmation & Développement : Alexandra Zaïnal
Sur une idée originale de : Baudouin d'Aumeries
Assistance à la programmation : Marc-Olivier Méhu
Soutien technique & logistique : Manuel Goepfert

Contact : metmap@orbifly.com




SOURCES & CREDITS :

   NOAA